Tracking 19280 objects as of 15-Nov-2018
HD Live streaming from Space Station
objects crossing your sky now

JCSAT 10

Track JCSAT 10 now!
JCSAT 10 is classified as:


NORAD ID: 29272
Int'l Code: 2006-033A
Perigee: 35,786.4 km
Apogee: 35,802.0 km
Inclination: 0.0 °
Period: 1,436.1 minutes
Semi major axis: 42165 km
RCS: 25.1189 m2 (large)
Launch date: August 11, 2006
Source: Japan (JPN)
Launch site: FRENCH GUIANA (FRGUI)

JCSat 10 is a Japanese geostationary communications satellite. The 4.4 tonne satellite carries 30 Ku-band and 12 C-band transponders to provide direct-to-home radio and television services to Japan, Asia-Pacific, and Hawaii, after parking over 128° E longitude.
aabbcc
Your satellite tracking list
Your tracking list is empty




NASA's NSSDC Master Catalog

Two Line Element Set (TLE):
1 29272U 06033A   18319.47527868 -.00000342  00000-0  00000+0 0  9992
2 29272   0.0079 251.5616 0001842 332.4565 129.6049  1.00270163 44985
Source of the keplerian elements: AFSPC